{"data":{"norad_id":59613,"epoch":"2026-09-20T15:37:18.357888Z","epoch_age_seconds":154988,"freshness":"FRESH","line1":"1 59613U 24080N   26263.65090692 -.00001372  00000+0 -40282-4 0  9998","line2":"2 59613  43.0137  20.8025 0004927 274.9132  85.1157 15.27574016134307","mean_motion":15.27574016,"eccentricity":0.0004927,"inclination_deg":43.0137,"raan_deg":20.8025,"arg_perigee_deg":274.9132,"mean_anomaly_deg":85.1157,"bstar":-4.0282e-5,"rev_number":13430,"period_min":94.267117986903,"perigee_km":479.68649912901,"apogee_km":486.44752956475,"semimajor_km":6861.2040143469,"source":"CELESTRAK","updated_at":"2026-09-22T09:00:49.012273Z"}}